{"data":{"norad_id":44537,"epoch":"2026-05-25T04:09:04.275360Z","epoch_age_seconds":59236,"freshness":"FRESH","line1":"1 44537U 19060D   26145.17296615  .00643524  20432-3  93800-3 0  9995","line2":"2 44537  97.5366 315.1795 0007960 282.7527  77.2864 16.05168351373583","mean_motion":16.05168351,"eccentricity":0.000796,"inclination_deg":97.5366,"raan_deg":315.1795,"arg_perigee_deg":282.7527,"mean_anomaly_deg":77.2864,"bstar":0.000938,"rev_number":37358,"period_min":89.710216321104,"perigee_km":254.84695052889,"apogee_km":265.41507320378,"semimajor_km":6638.2680118663,"source":"CELESTRAK","updated_at":"2026-05-25T13:37:56.001253Z"}}